Robinson, IL

3:09 AM CDT on September 26, 2017 (GMT -0500)
Robinson Municipal

Weather History for KRSV - December, 2013

Change the Weather History Date:

Thursday, December 26, 2013

  Actual Average (KLWV) Record (KLWV)
Temperature  
Mean Temperature 33 °F -  
Max Temperature 40 °F 36 °F 63 °F (2015)
Min Temperature 26 °F 21 °F 6 °F (2000)
Degree Days  
Heating Degree Days 32    
Moisture  
Dew Point 28 °F    
Average Humidity 80    
Maximum Humidity 98    
Minimum Humidity 59    
Precipitation  
Precipitation 0.00 in - - ()
Sea Level Pressure  
Sea Level Pressure 30.34 in    
Wind  
Wind Speed 8 mph (SW)    
Max Wind Speed 12 mph    
Max Gust Speed 18 mph    
Visibility 10 miles    
Events      
Averages and records for this station are not official NWS values.
T = Trace of Precipitation, MM = Missing Value Source: NWS Daily Summary

Daily Weather History Graph

Daily Weather History Graph

Search for Another Location

Airport or City:

Trip Planner

Search our weather history database for the weather conditions in past years. The results will help you decide how hot, cold, wet, or windy it might be!

Date:

Astronomy

Dec. 26, 2013 Rise Set
Actual Time 7:08 AM CST 4:34 PM CST
Civil Twilight 6:38 AM CST 5:04 PM CST
Nautical Twilight 6:04 AM CST 5:38 PM CST
Astronomical Twilight 5:32 AM CST 6:10 PM CST
Moon 12:38 AM CST 12:07 PM CST
Length of Visible Light 10h 26m
Length of Day
9h 26m
Last Quarter, 38% of the Moon is Illuminated
Dec 26
Last Quarter
Jan 1
New
Jan 7
First Quarter
Jan 15
Full
Jan 23
Last Quarter

Hourly Weather History & Observations

Time (CST) Temp. Windchill Dew Point Humidity Pressure Visibility Wind Dir Wind Speed Gust Speed Precip Events Conditions
12:15 AM 35.1 °F 27.4 °F 31.1 °F 85% 30.26 in 10.0 mi West 10.4 mph 18.4 mph N/A   Overcast
12:35 AM 34.9 °F 27.1 °F 31.1 °F 86% 30.26 in 10.0 mi West 10.4 mph - N/A   Overcast
12:55 AM 34.9 °F 26.6 °F 30.9 °F 85% 30.26 in 10.0 mi West 11.5 mph - N/A   Overcast
1:15 AM 34.9 °F 26.6 °F 30.4 °F 84% 30.27 in 10.0 mi West 11.5 mph 18.4 mph N/A   Overcast
1:35 AM 34.5 °F 27.9 °F 30.0 °F 84% 30.27 in 10.0 mi West 8.1 mph - N/A   Overcast
1:55 AM 33.3 °F 26.4 °F 29.3 °F 85% 30.27 in 10.0 mi West 8.1 mph - N/A   Scattered Clouds
2:15 AM 32.0 °F 24.8 °F 28.8 °F 88% 30.27 in 10.0 mi West 8.1 mph - N/A   Scattered Clouds
2:35 AM 31.3 °F 23.9 °F 28.4 °F 89% 30.29 in 10.0 mi West 8.1 mph - N/A   Scattered Clouds
2:55 AM 32.0 °F 24.2 °F 29.1 °F 89% 30.30 in 10.0 mi West 9.2 mph - N/A   Clear
3:15 AM 32.0 °F 24.2 °F 29.1 °F 89% 30.30 in 10.0 mi West 9.2 mph - N/A   Scattered Clouds
3:35 AM 31.6 °F 24.4 °F 28.8 °F 89% 30.31 in 10.0 mi West 8.1 mph - N/A   Scattered Clouds
3:55 AM 32.0 °F 23.0 °F 29.8 °F 92% 30.31 in 10.0 mi West 11.5 mph - N/A   Mostly Cloudy
4:15 AM 31.8 °F 23.9 °F 29.3 °F 90% 30.31 in 10.0 mi West 9.2 mph - N/A   Scattered Clouds
4:35 AM 31.6 °F 24.4 °F 29.3 °F 91% 30.32 in 7.0 mi West 8.1 mph - N/A   Clear
4:55 AM 31.1 °F 23.1 °F 29.1 °F 92% 30.33 in 7.0 mi West 9.2 mph - N/A   Clear
5:15 AM 30.4 °F 22.9 °F 28.6 °F 93% 30.33 in 7.0 mi West 8.1 mph - N/A   Clear
5:35 AM 30.0 °F 24.1 °F 28.4 °F 94% 30.33 in 7.0 mi West 5.8 mph - N/A   Mostly Cloudy
5:55 AM 28.2 °F 22.0 °F 26.8 °F 94% 30.33 in 7.0 mi West 5.8 mph - N/A   Scattered Clouds
6:15 AM 27.3 °F 22.0 °F 26.2 °F 96% 30.34 in 7.0 mi WSW 4.6 mph - N/A   Clear
6:35 AM 27.5 °F 19.3 °F 27.0 °F 98% 30.35 in 7.0 mi SW 8.1 mph - N/A   Clear
6:55 AM 27.7 °F 20.4 °F 27.0 °F 97% 30.35 in 7.0 mi SW 6.9 mph - N/A   Clear
7:15 AM 26.8 °F 20.2 °F 26.1 °F 97% 30.36 in 5.0 mi WSW 5.8 mph - N/A   Clear
7:35 AM 28.4 °F 20.4 °F 27.5 °F 96% 30.37 in 7.0 mi West 8.1 mph - N/A   Clear
7:55 AM 29.8 °F 23.0 °F 28.0 °F 93% 30.37 in 10.0 mi West 6.9 mph - N/A   Clear
8:15 AM 30.6 °F 25.8 °F 28.0 °F 90% 30.38 in 10.0 mi SW 4.6 mph - N/A   Clear
8:35 AM 31.1 °F 24.5 °F 29.1 °F 92% 30.38 in 7.0 mi SW 6.9 mph - N/A   Clear
8:55 AM 32.0 °F 28.7 °F 29.1 °F 89% 30.38 in 7.0 mi West 3.5 mph - N/A   Clear
9:15 AM 32.7 °F 27.3 °F 29.1 °F 87% 30.39 in 10.0 mi WNW 5.8 mph - N/A   Clear
9:35 AM 32.9 °F 28.5 °F 29.1 °F 86% 30.40 in 10.0 mi NW 4.6 mph - N/A   Clear
9:55 AM 33.3 °F 28.9 °F 29.1 °F 85% 30.41 in 10.0 mi NW 4.6 mph - N/A   Clear
10:15 AM 34.0 °F 31.0 °F 29.1 °F 82% 30.41 in 10.0 mi NW 3.5 mph - N/A   Clear
10:35 AM 34.9 °F - 28.4 °F 77% 30.41 in 10.0 mi Calm Calm - N/A   Clear
10:55 AM 35.4 °F 30.5 °F 27.9 °F 74% 30.42 in 10.0 mi WNW 5.8 mph - N/A   Clear
11:15 AM 36.1 °F 29.9 °F 28.4 °F 73% 30.42 in 10.0 mi WNW 8.1 mph - N/A   Clear
11:35 AM 36.5 °F 31.8 °F 27.9 °F 71% 30.41 in 10.0 mi WNW 5.8 mph - N/A   Clear
11:55 AM 37.4 °F 31.4 °F 27.9 °F 68% 30.40 in 10.0 mi West 8.1 mph - N/A   Clear
12:15 PM 38.1 °F 32.3 °F 28.6 °F 69% 30.39 in 10.0 mi WSW 8.1 mph - N/A   Clear
12:35 PM 38.5 °F 33.4 °F 28.6 °F 68% 30.38 in 10.0 mi SSW 6.9 mph - N/A   Clear
12:55 PM 39.0 °F 34.0 °F 29.1 °F 68% 30.37 in 10.0 mi SSW 6.9 mph - N/A   Clear
1:15 PM 39.4 °F 33.8 °F 28.9 °F 66% 30.36 in 10.0 mi SSW 8.1 mph - N/A   Clear
1:35 PM 39.7 °F 33.7 °F 28.2 °F 63% 30.35 in 10.0 mi South 9.2 mph - N/A   Clear
1:55 PM 40.3 °F 34.4 °F 28.6 °F 63% 30.35 in 10.0 mi SSW 9.2 mph - N/A   Clear
2:15 PM 40.5 °F 35.1 °F 28.2 °F 62% 30.35 in 10.0 mi SSW 8.1 mph - N/A   Clear
2:35 PM 40.5 °F 34.6 °F 27.3 °F 59% 30.35 in 10.0 mi SSW 9.2 mph - N/A   Clear
2:55 PM 40.8 °F 35.6 °F 28.0 °F 60% 30.34 in 10.0 mi South 8.1 mph - N/A   Clear
3:15 PM 40.5 °F 34.6 °F 28.0 °F 61% 30.34 in 10.0 mi South 9.2 mph - N/A   Clear
3:35 PM 40.3 °F 34.9 °F 27.5 °F 60% 30.34 in 10.0 mi South 8.1 mph - N/A   Clear
3:55 PM 39.6 °F 34.7 °F 27.5 °F 62% 30.34 in 10.0 mi South 6.9 mph - N/A   Clear
4:15 PM 38.7 °F 32.9 °F 28.0 °F 66% 30.35 in 10.0 mi South 8.1 mph - N/A   Scattered Clouds
4:35 PM 37.0 °F 31.6 °F 28.0 °F 70% 30.35 in 10.0 mi South 6.9 mph - N/A   Scattered Clouds
4:55 PM 36.3 °F 30.1 °F 28.2 °F 72% 30.34 in 10.0 mi South 8.1 mph - N/A   Clear
5:15 PM 34.5 °F 27.9 °F 28.0 °F 77% 30.34 in 10.0 mi South 8.1 mph - N/A   Clear
5:35 PM 33.1 °F 28.7 °F 27.7 °F 81% 30.34 in 10.0 mi SSE 4.6 mph - N/A   Clear
5:55 PM 33.8 °F 28.6 °F 28.2 °F 80% 30.33 in 10.0 mi South 5.8 mph - N/A   Clear
6:15 PM 34.2 °F 29.0 °F 28.4 °F 79% 30.33 in 10.0 mi South 5.8 mph - N/A   Scattered Clouds
6:35 PM 34.7 °F 29.6 °F 28.9 °F 79% 30.34 in 10.0 mi South 5.8 mph - N/A   Scattered Clouds
6:55 PM 34.9 °F 29.9 °F 28.4 °F 77% 30.34 in 10.0 mi South 5.8 mph - N/A   Clear
7:15 PM 34.2 °F 27.5 °F 28.6 °F 80% 30.33 in 10.0 mi South 8.1 mph - N/A   Clear
7:35 PM 34.7 °F 28.1 °F 28.9 °F 79% 30.33 in 10.0 mi South 8.1 mph - N/A   Clear
7:55 PM 34.7 °F 26.9 °F 28.4 °F 78% 30.31 in 10.0 mi South 10.4 mph - N/A   Clear
8:15 PM 34.7 °F 28.1 °F 27.9 °F 76% 30.32 in 10.0 mi South 8.1 mph - N/A   Clear
8:35 PM 34.0 °F 27.2 °F 28.0 °F 79% 30.33 in 10.0 mi SSW 8.1 mph - N/A   Clear
8:55 PM 34.0 °F 27.2 °F 27.9 °F 78% 30.33 in 10.0 mi SSW 8.1 mph - N/A   Clear
9:15 PM 33.3 °F 27.9 °F 27.5 °F 79% 30.34 in 10.0 mi SSW 5.8 mph - N/A   Clear
9:35 PM 32.5 °F 27.1 °F 27.7 °F 82% 30.35 in 10.0 mi SSW 5.8 mph - N/A   Clear
9:55 PM 32.5 °F 26.2 °F 28.0 °F 83% 30.35 in 10.0 mi SSW 6.9 mph - N/A   Clear
10:15 PM 33.3 °F 26.4 °F 28.4 °F 82% 30.34 in 10.0 mi SSW 8.1 mph - N/A   Clear
10:35 PM 34.0 °F 27.2 °F 28.8 °F 81% 30.35 in 10.0 mi SW 8.1 mph - N/A   Clear
10:55 PM 34.0 °F 26.6 °F 28.9 °F 82% 30.36 in 10.0 mi SW 9.2 mph - N/A   Clear
11:15 PM 34.7 °F 27.5 °F 28.9 °F 79% 30.36 in 10.0 mi SW 9.2 mph - N/A   Clear
11:35 PM 34.5 °F 27.3 °F 28.9 °F 80% 30.37 in 10.0 mi SW 9.2 mph - N/A   Clear
11:55 PM 34.5 °F 27.3 °F 28.9 °F 80% 30.36 in 10.0 mi SSW 9.2 mph - N/A   Clear